Time,TemperatureF,DewpointF,PressureIn,WindDirection,WindDirectionDegrees,WindSpeedMPH,WindSpeedGustMPH,Humidity,HourlyPrecipIn,Conditions,Clouds,dailyrainin,SoftwareType,DateUTC
2013-06-03 00:06:00,61.6,58.0,29.99,NNE,17,2.0,3.0,87,0.00,,,0.00,weatherlink.com 1.10,2013-06-03 05:06:00,
2013-06-03 00:21:00,61.5,58.0,29.99,NNE,17,0.0,3.0,88,0.00,,,0.00,weatherlink.com 1.10,2013-06-03 05:21:00,
2013-06-03 00:36:00,61.4,58.0,29.99,NNE,17,1.0,4.0,88,0.00,,,0.00,weatherlink.com 1.10,2013-06-03 05:36:00,
2013-06-03 00:51:00,61.5,58.0,29.99,North,5,1.0,3.0,88,0.00,,,0.00,weatherlink.com 1.10,2013-06-03 05:51:00,
2013-06-03 01:06:00,61.4,58.0,29.99,North,5,0.0,3.0,88,0.00,,,0.00,weatherlink.com 1.10,2013-06-03 06:06:00,
2013-06-03 01:21:00,61.3,57.0,29.99,North,5,0.0,3.0,87,0.00,,,0.00,weatherlink.com 1.10,2013-06-03 06:21:00,
2013-06-03 01:36:00,61.1,58.0,29.99,North,5,0.0,3.0,88,0.00,,,0.00,weatherlink.com 1.10,2013-06-03 06:36:00,
2013-06-03 01:51:00,60.8,57.0,29.99,North,5,1.0,5.0,88,0.00,,,0.00,weatherlink.com 1.10,2013-06-03 06:51:00,
2013-06-03 02:07:00,60.5,57.0,29.98,North,5,0.0,3.0,89,0.00,,,0.00,weatherlink.com 1.10,2013-06-03 07:07:00,
2013-06-03 02:22:00,60.3,57.0,29.98,North,5,0.0,4.0,89,0.00,,,0.00,weatherlink.com 1.10,2013-06-03 07:22:00,
2013-06-03 02:37:00,60.2,57.0,29.98,North,5,0.0,4.0,89,0.00,,,0.00,weatherlink.com 1.10,2013-06-03 07:37:00,
2013-06-03 02:52:00,59.9,57.0,29.98,North,5,0.0,3.0,89,0.00,,,0.00,weatherlink.com 1.10,2013-06-03 07:52:00,
2013-06-03 03:07:00,59.7,57.0,29.98,North,5,0.0,3.0,90,0.00,,,0.00,weatherlink.com 1.10,2013-06-03 08:07:00,
2013-06-03 03:22:00,59.7,57.0,29.98,North,5,0.0,3.0,90,0.00,,,0.00,weatherlink.com 1.10,2013-06-03 08:22:00,
2013-06-03 03:37:00,59.7,57.0,29.98,North,5,0.0,5.0,90,0.00,,,0.00,weatherlink.com 1.10,2013-06-03 08:37:00,
2013-06-03 03:52:00,59.8,57.0,29.98,North,360,1.0,5.0,90,0.00,,,0.00,weatherlink.com 1.10,2013-06-03 08:52:00,
2013-06-03 04:07:00,59.7,57.0,29.98,North,5,3.0,4.0,90,0.00,,,0.00,weatherlink.com 1.10,2013-06-03 09:07:00,
2013-06-03 04:22:00,59.6,56.0,29.98,North,355,1.0,5.0,89,0.00,,,0.00,weatherlink.com 1.10,2013-06-03 09:22:00,
2013-06-03 04:37:00,59.4,57.0,29.99,North,11,1.0,5.0,90,0.00,,,0.00,weatherlink.com 1.10,2013-06-03 09:37:00,
2013-06-03 04:52:00,59.2,56.0,29.99,NNE,26,2.0,3.0,90,0.00,,,0.00,weatherlink.com 1.10,2013-06-03 09:52:00,
2013-06-03 05:07:00,59.0,56.0,30.00,NNE,25,0.0,3.0,90,0.00,,,0.00,weatherlink.com 1.10,2013-06-03 10:07:00,
2013-06-03 05:22:00,58.7,56.0,30.00,North,355,0.0,4.0,91,0.00,,,0.00,weatherlink.com 1.10,2013-06-03 10:22:00,
2013-06-03 05:37:00,58.7,56.0,30.02,ENE,62,0.0,1.0,91,0.00,,,0.00,weatherlink.com 1.10,2013-06-03 10:37:00,
2013-06-03 05:52:00,58.9,56.0,30.02,ESE,123,0.0,1.0,91,0.00,,,0.00,weatherlink.com 1.10,2013-06-03 10:52:00,
2013-06-03 06:07:00,59.0,57.0,30.02,ESE,123,0.0,1.0,92,0.00,,,0.00,weatherlink.com 1.10,2013-06-03 11:07:00,
2013-06-03 06:22:00,59.1,57.0,30.03,ESE,123,2.0,3.0,91,0.00,,,0.00,weatherlink.com 1.10,2013-06-03 11:22:00,
2013-06-03 06:37:00,59.3,57.0,30.03,ESE,123,1.0,3.0,91,0.00,,,0.00,weatherlink.com 1.10,2013-06-03 11:37:00,
2013-06-03 06:52:00,59.4,57.0,30.04,ENE,76,0.0,4.0,90,0.00,,,0.00,weatherlink.com 1.10,2013-06-03 11:52:00,
2013-06-03 07:07:00,59.6,56.0,30.04,NNE,15,1.0,4.0,89,0.00,,,0.00,weatherlink.com 1.10,2013-06-03 12:07:00,
2013-06-03 07:22:00,59.9,57.0,30.05,North,355,3.0,5.0,89,0.00,,,0.00,weatherlink.com 1.10,2013-06-03 12:22:00,
2013-06-03 07:37:00,60.1,57.0,30.07,North,355,0.0,3.0,89,0.00,,,0.00,weatherlink.com 1.10,2013-06-03 12:37:00,
2013-06-03 07:52:00,60.4,57.0,30.07,North,355,1.0,4.0,89,0.00,,,0.00,weatherlink.com 1.10,2013-06-03 12:52:00,
2013-06-03 08:07:00,60.6,57.0,30.07,North,355,3.0,3.0,88,0.00,,,0.00,weatherlink.com 1.10,2013-06-03 13:07:00,
2013-06-03 08:22:00,60.8,57.0,30.07,NE,42,2.0,4.0,86,0.00,,,0.00,weatherlink.com 1.10,2013-06-03 13:22:00,
2013-06-03 08:37:00,61.1,57.0,30.07,North,360,0.0,5.0,86,0.00,,,0.00,weatherlink.com 1.10,2013-06-03 13:37:00,
2013-06-03 08:52:00,61.6,57.0,30.07,North,355,2.0,4.0,85,0.00,,,0.00,weatherlink.com 1.10,2013-06-03 13:52:00,
2013-06-03 09:07:00,62.3,58.0,30.07,North,355,4.0,5.0,85,0.00,,,0.00,weatherlink.com 1.10,2013-06-03 14:07:00,
2013-06-03 09:22:00,63.8,59.0,30.06,NNE,13,0.0,5.0,83,0.00,,,0.00,weatherlink.com 1.10,2013-06-03 14:22:00,
2013-06-03 09:37:00,63.9,58.0,30.05,NE,37,1.0,5.0,81,0.00,,,0.00,weatherlink.com 1.10,2013-06-03 14:37:00,
2013-06-03 09:52:00,64.1,58.0,30.06,NNE,15,0.0,5.0,80,0.00,,,0.00,weatherlink.com 1.10,2013-06-03 14:52:00,
2013-06-03 10:07:00,64.0,58.0,30.06,North,350,1.0,5.0,82,0.00,,,0.00,weatherlink.com 1.10,2013-06-03 15:07:00,
2013-06-03 10:22:00,65.2,59.0,30.06,North,360,1.0,4.0,79,0.00,,,0.00,weatherlink.com 1.10,2013-06-03 15:22:00,
2013-06-03 10:37:00,64.9,56.0,30.05,North,9,1.0,4.0,74,0.00,,,0.00,weatherlink.com 1.10,2013-06-03 15:37:00,
2013-06-03 10:52:00,65.1,58.0,30.06,SE,130,0.0,4.0,78,0.00,,,0.00,weatherlink.com 1.10,2013-06-03 15:52:00,
2013-06-03 11:07:00,65.1,57.0,30.06,North,10,0.0,4.0,75,0.00,,,0.00,weatherlink.com 1.10,2013-06-03 16:07:00,
2013-06-03 11:22:00,65.9,59.0,30.05,North,10,0.0,2.0,78,0.00,,,0.00,weatherlink.com 1.10,2013-06-03 16:22:00,
2013-06-03 11:38:00,66.5,58.0,30.05,North,355,2.0,5.0,74,0.00,,,0.00,weatherlink.com 1.10,2013-06-03 16:38:00,
2013-06-03 11:53:00,65.6,57.0,30.06,North,360,1.0,5.0,74,0.00,,,0.00,weatherlink.com 1.10,2013-06-03 16:53:00,
2013-06-03 12:08:00,64.8,57.0,30.06,NNE,23,3.0,5.0,77,0.00,,,0.00,weatherlink.com 1.10,2013-06-03 17:08:00,
2013-06-03 12:23:00,65.6,57.0,30.05,NNE,24,1.0,3.0,74,0.00,,,0.00,weatherlink.com 1.10,2013-06-03 17:23:00,
2013-06-03 12:38:00,67.4,57.0,30.05,ESE,118,1.0,5.0,69,0.00,,,0.00,weatherlink.com 1.10,2013-06-03 17:38:00,
2013-06-03 12:53:00,67.8,58.0,30.04,NE,55,2.0,5.0,71,0.00,,,0.00,weatherlink.com 1.10,2013-06-03 17:53:00,
2013-06-03 13:08:00,67.5,57.0,30.04,North,5,0.0,4.0,69,0.00,,,0.00,weatherlink.com 1.10,2013-06-03 18:08:00,
2013-06-03 13:23:00,68.1,57.0,30.03,WSW,255,1.0,5.0,67,0.00,,,0.00,weatherlink.com 1.10,2013-06-03 18:23:00,
2013-06-03 13:38:00,68.3,57.0,30.02,North,351,2.0,5.0,67,0.00,,,0.00,weatherlink.com 1.10,2013-06-03 18:38:00,
2013-06-03 13:53:00,67.9,57.0,30.02,North,360,0.0,4.0,69,0.00,,,0.00,weatherlink.com 1.10,2013-06-03 18:53:00,
2013-06-03 14:08:00,69.4,60.0,30.02,NE,51,1.0,3.0,72,0.00,,,0.00,weatherlink.com 1.10,2013-06-03 19:08:00,
2013-06-03 14:23:00,67.8,57.0,30.02,ENE,59,0.0,2.0,69,0.00,,,0.00,weatherlink.com 1.10,2013-06-03 19:23:00,
2013-06-03 14:38:00,67.8,57.0,30.02,East,85,1.0,3.0,69,0.00,,,0.00,weatherlink.com 1.10,2013-06-03 19:38:00,
2013-06-03 14:53:00,67.9,57.0,30.01,ENE,58,1.0,2.0,68,0.00,,,0.00,weatherlink.com 1.10,2013-06-03 19:53:00,
2013-06-03 15:08:00,67.6,55.0,30.01,North,360,0.0,5.0,64,0.00,,,0.00,weatherlink.com 1.10,2013-06-03 20:08:00,
2013-06-03 15:23:00,67.8,56.0,30.01,North,360,0.0,3.0,67,0.00,,,0.00,weatherlink.com 1.10,2013-06-03 20:23:00,
2013-06-03 15:38:00,68.1,57.0,30.00,North,360,0.0,4.0,68,0.00,,,0.00,weatherlink.com 1.10,2013-06-03 20:38:00,
2013-06-03 15:53:00,68.5,58.0,29.99,North,360,0.0,4.0,70,0.00,,,0.00,weatherlink.com 1.10,2013-06-03 20:53:00,
2013-06-03 16:08:00,69.7,60.0,30.00,North,11,0.0,5.0,70,0.00,,,0.00,weatherlink.com 1.10,2013-06-03 21:08:00,
2013-06-03 16:23:00,70.5,56.0,29.99,NW,311,3.0,5.0,61,0.00,,,0.00,weatherlink.com 1.10,2013-06-03 21:23:00,
2013-06-03 16:38:00,70.6,55.0,29.99,NNW,346,2.0,4.0,58,0.00,,,0.00,weatherlink.com 1.10,2013-06-03 21:38:00,
2013-06-03 16:53:00,69.2,55.0,30.00,NNW,329,4.0,6.0,62,0.00,,,0.00,weatherlink.com 1.10,2013-06-03 21:53:00,
2013-06-03 17:08:00,68.7,55.0,30.00,NNW,327,2.0,7.0,61,0.00,,,0.00,weatherlink.com 1.10,2013-06-03 22:08:00,
2013-06-03 17:23:00,67.8,56.0,29.99,NNW,327,2.0,5.0,65,0.00,,,0.00,weatherlink.com 1.10,2013-06-03 22:23:00,
2013-06-03 17:38:00,68.1,56.0,29.99,NNW,327,0.0,2.0,66,0.00,,,0.00,weatherlink.com 1.10,2013-06-03 22:38:00,
2013-06-03 17:53:00,69.1,57.0,29.99,NNW,327,0.0,2.0,66,0.00,,,0.00,weatherlink.com 1.10,2013-06-03 22:53:00,
2013-06-03 18:08:00,69.4,57.0,29.99,NNW,327,1.0,1.0,64,0.00,,,0.00,weatherlink.com 1.10,2013-06-03 23:08:00,
2013-06-03 18:23:00,69.0,56.0,29.99,NW,326,2.0,6.0,63,0.00,,,0.00,weatherlink.com 1.10,2013-06-03 23:23:00,
2013-06-03 18:38:00,69.4,55.0,29.99,NNW,327,2.0,4.0,61,0.00,,,0.00,weatherlink.com 1.10,2013-06-03 23:38:00,
2013-06-03 18:53:00,69.8,56.0,29.99,NW,326,1.0,3.0,62,0.00,,,0.00,weatherlink.com 1.10,2013-06-03 23:53:00,
2013-06-03 19:08:00,69.3,57.0,29.99,NW,326,0.0,3.0,65,0.00,,,0.00,weatherlink.com 1.10,2013-06-04 00:08:00,
2013-06-03 19:23:00,68.2,57.0,29.99,NNW,327,1.0,3.0,67,0.00,,,0.00,weatherlink.com 1.10,2013-06-04 00:23:00,
2013-06-03 19:38:00,67.0,57.0,29.99,NNW,327,0.0,1.0,71,0.00,,,0.00,weatherlink.com 1.10,2013-06-04 00:38:00,
2013-06-03 19:53:00,65.6,57.0,29.99,NNW,327,0.0,1.0,73,0.00,,,0.00,weatherlink.com 1.10,2013-06-04 00:53:00,
2013-06-03 20:08:00,64.2,56.0,29.99,NNW,327,0.0,0.0,75,0.00,,,0.00,weatherlink.com 1.10,2013-06-04 01:08:00,
2013-06-03 20:23:00,63.0,56.0,30.00,NNW,327,0.0,0.0,77,0.00,,,0.00,weatherlink.com 1.10,2013-06-04 01:23:00,
2013-06-03 20:38:00,61.9,56.0,30.00,NNW,327,0.0,0.0,81,0.00,,,0.00,weatherlink.com 1.10,2013-06-04 01:38:00,
2013-06-03 20:53:00,61.0,56.0,30.00,NNW,327,0.0,0.0,82,0.00,,,0.00,weatherlink.com 1.10,2013-06-04 01:53:00,
2013-06-03 21:08:00,60.4,56.0,30.01,NNW,327,0.0,0.0,84,0.00,,,0.00,weatherlink.com 1.10,2013-06-04 02:08:00,
2013-06-03 21:23:00,59.5,55.0,30.02,NNW,327,0.0,0.0,84,0.00,,,0.00,weatherlink.com 1.10,2013-06-04 02:23:00,
2013-06-03 21:38:00,59.1,55.0,30.02,NNW,327,0.0,0.0,85,0.00,,,0.00,weatherlink.com 1.10,2013-06-04 02:38:00,
2013-06-03 21:53:00,58.5,54.0,30.03,NNW,327,0.0,0.0,85,0.00,,,0.00,weatherlink.com 1.10,2013-06-04 02:53:00,
2013-06-03 22:08:00,58.0,54.0,30.03,NNW,327,0.0,0.0,86,0.00,,,0.00,weatherlink.com 1.10,2013-06-04 03:08:00,
2013-06-03 22:23:00,57.8,54.0,30.03,NNW,327,0.0,1.0,86,0.00,,,0.00,weatherlink.com 1.10,2013-06-04 03:23:00,
2013-06-03 22:38:00,57.7,54.0,30.04,NW,326,0.0,1.0,87,0.00,,,0.00,weatherlink.com 1.10,2013-06-04 03:38:00,
2013-06-03 22:53:00,57.3,54.0,30.03,NNW,327,0.0,0.0,87,0.00,,,0.00,weatherlink.com 1.10,2013-06-04 03:53:00,
2013-06-03 23:08:00,56.8,54.0,30.04,NNW,327,0.0,0.0,89,0.00,,,0.00,weatherlink.com 1.10,2013-06-04 04:08:00,
2013-06-03 23:23:00,56.5,54.0,30.04,NNW,327,0.0,0.0,90,0.00,,,0.00,weatherlink.com 1.10,2013-06-04 04:23:00,
2013-06-03 23:38:00,56.2,53.0,30.04,NNW,327,0.0,0.0,90,0.00,,,0.00,weatherlink.com 1.10,2013-06-04 04:38:00,
2013-06-03 23:53:00,56.1,53.0,30.04,NNW,327,0.0,0.0,90,0.00,,,0.00,weatherlink.com 1.10,2013-06-04 04:53:00,